Regional Weather Roundup
Issued by NWS Upton, NY

Current Version | Previous Version | Text Only | Print | Product List | Glossary On
Versions: 1 2 3 4 5 6 7 8 9 10 11 12 13 14 15 16 17 18 19 20 21 22 23 24 25 26 27 28 29 30 31 32 33 34 35 36 37 38 39 40 41 42 43 44 45 46 47 48 49 50
000
ASUS41 KOKX 222309
RWROKX

Regional Weather Roundup
National Weather Service New York NY
600 PM EST MON JAN 22 2018

Note: "FAIR" indicates few or no clouds below 12,000 feet with no
significant weather and/or obstructions to visibility.

NYZ071-072-176-178-NJZ106-104-230000-
New York City Metro Area

CITY           SKY/WX    TMP DP  RH WIND       PRES   REMARKS
Central Park   CLOUDY    42  39  89 E8        30.17R FOG
Bronx Bot Gard NOT AVBL
Bronx Lehman C   N/A     39  37  93 E12         N/A  WCI  32
LaGuardia Arpt CLOUDY    40  36  86 NE8       30.15S WCI  34
Queens College   N/A     43  39  87 NE5         N/A
Kennedy Intl   CLOUDY    45  41  86 E12       30.15S
Breezy Point     N/A     41 N/A N/A E8          N/A
Brooklyn Coll    N/A     45  39  81 E7          N/A
Staten Island    N/A     45  39  81 NE2         N/A
Newark/Liberty CLOUDY    43  39  86 N9        30.14R
Teterboro      CLOUDY    41  39  93 E9G20     30.14S FOG
$$

NYZ177-179-078>081-230000-
Long Island New York

CITY           SKY/WX    TMP DP  RH WIND       PRES   REMARKS
Jones Beach      N/A     43 N/A N/A E9          N/A
Wantagh          N/A     41  39  93 E8          N/A
Matinecock Pt    N/A     36 N/A N/A E16         N/A  WCI  26
Farmingdale    CLOUDY    43  41  93 SE9       30.15S
MacArthur/ISP  CLOUDY    46  41  82 E8        30.15R
Shirley        CLOUDY    42  40  92 E5        30.17R
Mt Sinai Harb    N/A    N/A N/A N/A E5          N/A
Westhampton    CLOUDY    42  39  89 E10       30.18S FOG
East Hampton   CLOUDY    39  37  93 E10G16    30.17F WCI  33
Southold         N/A     37  36  93 E14         N/A  WCI  29
Montauk          N/A     41  38  89 E10       30.20S
$$

NYZ052-065-067-230000-
Hudson Valley

CITY           SKY/WX    TMP DP  RH WIND       PRES   REMARKS
White Plains   FOG       39  38  96 E13       30.14S VSB 1   WCI  31
Larchmont Harb   N/A     36 N/A N/A NE17        N/A  WCI  25
Croton On Huds   N/A     41 N/A N/A MISG        N/A
Somers           N/A     41  37  87 E8          N/A
Brewster         N/A     37  37 100 SE3         N/A
Newburgh       CLOUDY    39  37  93 VRB5      30.14R FOG
Montgomery     CLOUDY    37  35  92 NE5       30.12S FOG     WCI  33
Otisville        N/A     37  36  93 NE2         N/A
Warwick          N/A     39  37  93 N1          N/A
Suffern          N/A     41  37  87 E2          N/A
Poughkeepsie   CLOUDY    37  34  89 CALM      30.15R
Albany         LGT RAIN  33  29  85 E5        30.12F FOG     WCI  29
$$

NJZ001-105-106-008-010-013-015-019>022-104-230000-
New Jersey

CITY           SKY/WX    TMP DP  RH WIND       PRES   REMARKS
Newark/Liberty CLOUDY    43  39  86 N9        30.14R
Teterboro      CLOUDY    41  39  93 E9G20     30.14S FOG
Caldwell       CLOUDY    41  40  96 E10       30.14F FOG
Somerville     FAIR      46  39  76 CALM      30.10S
Linden         CLOUDY    46  38  76 CALM      30.14R
Perth Amboy      N/A     43 N/A N/A E9          N/A
Sussex         CLOUDY    40  37  89 NE5       30.12S
Andover          N/A     39  37  92 VRB3      30.10F
Trenton        FAIR      47  38  71 NE8       30.09R
Millville      FAIR      52  42  69 CALM      30.08F
Atlantic City  FAIR      50  40  68 S7        30.10S
Wrightstown    FAIR      51  41  70 E6        30.06S
Toms River     FAIR      43  38  82 NE3       30.11F
Belmar         CLOUDY    43  40  89 E7        30.12F
$$

PAZ047>061-062-071-230000-
Eastern Pennsylvania

CITY           SKY/WX    TMP DP  RH WIND       PRES   REMARKS
Philadelphia   MOCLDY    53  40  61 E3        30.07S
Allentown      FAIR      44  37  76 NE6       30.07F
Scranton       CLOUDY    45  42  89 W3        30.02S
$$

CTZ002-004>006-009-010-012-RIZ004-006-007-MAZ004-011-015-230000-
Southern New England

 In CT

CITY           SKY/WX    TMP DP  RH WIND       PRES   REMARKS
Bradley Intl   LGT RAIN  37  36  96 NE7       30.20S FOG     WCI  32
Hartford       CLOUDY    40  38  93 CALM      30.21R FOG
Danbury        CLOUDY    40  38  93 E6        30.17R FOG
Wtrbury/Oxford FOG       37  37 100 E8        30.16S VSB 1/4 WCI  31
Norwalk Harbor   N/A     36 N/A N/A E18         N/A  WCI  25
Bridgeport     CLOUDY    40  36  86 E14       30.18S WCI  32
Meriden        CLOUDY    39  36  89 N3        30.19S FOG
New Haven      CLOUDY    43  38  82 E8        30.17S
Chester        CLOUDY    41  37  87 E7        30.18S
Groton         LGT RAIN  41  36  82 E12       30.20S
Willimantic    CLOUDY    39  36  89 E6        30.22R WCI  35

 In RI

CITY           SKY/WX    TMP DP  RH WIND       PRES   REMARKS
Providence     CLOUDY    39  39 100 NE6       30.24S FOG     WCI  35
Block Island   LGT RAIN  39  38  96 E12       30.22R FOG     WCI  32
Westerly       CLOUDY    41  39  93 NE10      30.21F FOG

In MA

CITY           SKY/WX    TMP DP  RH WIND       PRES   REMARKS
Boston         CLOUDY    38  37  97 NE12      30.27S FOG     WCI  30
Worcester      FRZ RAIN  31  29  92 NE9G17    30.20F VSB 1/4 WCI  23
Westfield      CLOUDY    36  36 100 VRB5      30.20F WCI  32
Provincetown   LGT RAIN  39  36  89 E5        30.27S
Nantucket      CLOUDY    40  40 100 E13       30.25S WCI  32
$$

ANZ330-335-338-340-345-350-353-355-230000-
Coastal Marine Observations


STATION/POSITION TIME  SKY/WX   TEMP    WIND        PRES    VSBY  WAVE
                                AIR SEA DIR/SP/G                  HT/PER
                 (UTC)          (F)     (DEG/KT/KT) (MB)    (MI)  (FT/S)
NY Harb Entrance 2150            42 40  120/  8/ 10 1020.2          1/ 4
20 S Fire Island 2250            44 42   90/  6/  8 1020.7          2/ 4
15 E Barnegat Li 2230               43                N/A           2/11
Hudson Canyon    2150            51 49  140/  2/  4 1020.9          2/10
Kings Point      2230            40 33   90/  5/  8 1021.7
Execution Rocks  NOT AVBL
Western LI Sound NOT AVBL
Central LI Sound 2200            38      80/ 12/ 17   N/A           1
Robbins Reef     2230            44      40/ 12/ 12 1021.0
$$


>>>>>>>>>>>>>>>>>>>>>>>>>>>> KEY <<<<<<<<<<<<<<<<<<<<<<<<<<<
>                                                          <
>     SKY/WX - Sky Condition/Present Weather               <
>     TMP    - Temperature in Fahrenheit                   <
>     DP     - Dew Point in Fahrenheit                     <
>     RH     - Relative Humidity in Percent                <
>     WIND   - Direction (from) and Speed in MPH           <
>     PRES   - Mean Sea Level Pressure (inches of Hg)      <
>     WCI    - Wind Chill Index                            <
>     VSB    - Visibility in Miles                         <
>     HX     - Heat Index                                  <
>     TC     - Temperature in Celsius                      <
>     VRB    - Varibale Wind Direction                     <
>                                                          <
>>>>>>>>>>>>>>>>>>>>>>>>>>>> KEY <<<<<<<<<<<<<<<<<<<<<<<<<<<



USA.gov is the U.S. government's official web portal to all federal, state and local government web resources and services.